CST,Max TemperatureF,Mean TemperatureF,Min TemperatureF,Max Dew PointF,MeanDew PointF,Min DewpointF,Max Humidity, Mean Humidity, Min Humidity, Max Sea Level PressureIn, Mean Sea Level PressureIn, Min Sea Level PressureIn, Max VisibilityMiles, Mean VisibilityMiles, Min VisibilityMiles, Max Wind SpeedMPH, Mean Wind SpeedMPH, Max Gust SpeedMPH,PrecipitationIn, CloudCover, Events, WindDirDegrees
2013-11-1,50,46,41,46,43,39,100,92,78,29.79,29.66,29.51,10,9,5,16,9,22,0.00,7,,248
2013-11-2,50,39,28,41,36,29,100,84,54,30.16,30.00,29.79,10,10,7,16,8,23,0.00,3,,294
2013-11-3,53,39,25,37,32,25,100,75,48,30.27,30.20,30.13,10,10,7,12,3,16,0.00,0,,130
2013-11-4,56,50,44,45,41,36,80,71,58,30.17,30.12,30.05,10,10,10,21,10,28,0.00,4,,156
2013-11-5,54,52,50,53,50,46,100,94,79,30.22,30.10,29.90,10,8,2,17,8,26,0.11,8,Rain,157
2013-11-6,56,43,30,56,41,28,100,93,78,30.24,30.02,29.82,10,10,3,22,14,29,0.21,5,Rain,266
2013-11-7,43,34,24,37,31,24,100,87,69,30.30,30.27,30.25,10,10,10,18,6,23,0.00,2,,256
2013-11-8,48,35,22,36,31,23,100,75,56,30.32,30.16,29.92,10,10,10,22,6,28,0.00,0,,162
2013-11-9,59,50,40,40,38,35,83,66,47,30.22,30.02,29.90,10,10,10,26,16,33,0.00,0,,251
2013-11-10,48,37,26,34,31,26,99,77,54,30.42,30.32,30.22,10,10,10,12,6,16,0.00,2,,261
2013-11-11,50,36,22,39,32,18,100,78,62,30.57,30.27,30.10,10,9,1,22,10,26,0.02,7,Rain-Snow,306
2013-11-12,29,20,12,22,17,11,92,84,68,30.77,30.69,30.58,10,10,10,13,8,16,0.00,0,,291
2013-11-13,42,28,14,24,19,14,96,68,41,30.63,30.42,30.17,10,10,10,20,8,25,0.00,0,,192
2013-11-14,52,41,30,29,25,20,69,57,39,30.17,30.03,29.95,10,10,10,21,13,26,0.00,0,,191
2013-11-15,49,40,32,37,32,24,89,72,57,29.99,29.94,29.87,10,10,10,15,7,,0.00,3,,168
2013-11-16,58,48,39,56,50,37,97,92,89,29.86,29.67,29.54,10,9,5,23,12,31,0.05,7,Rain-Thunderstorm,160
2013-11-17,66,54,42,62,51,39,100,89,78,29.89,29.53,29.21,10,10,4,38,14,64,0.14,5,Rain-Thunderstorm,223
2013-11-18,44,36,27,38,33,26,96,83,61,30.30,30.12,29.90,10,10,10,22,13,29,0.00,1,,279
2013-11-19,45,34,22,30,28,22,100,80,52,30.35,30.28,30.19,10,10,7,9,4,,0.00,0,,112
2013-11-20,40,36,32,38,33,30,100,90,77,30.20,30.11,30.00,10,9,2,12,8,18,0.21,6,Rain-Thunderstorm,132
2013-11-21,46,42,39,44,41,39,100,93,88,30.26,30.14,30.05,10,8,4,10,5,,0.01,8,Rain,13
2013-11-22,39,30,19,39,30,19,100,94,80,30.54,30.44,30.25,10,9,3,17,11,21,0.01,5,Rain,318
2013-11-23,22,16,10,19,13,7,98,80,61,30.74,30.64,30.52,10,10,10,20,10,24,0.00,2,,314
2013-11-24,28,16,5,14,9,4,95,73,38,30.74,30.60,30.36,10,10,10,13,4,,0.00,0,,194
2013-11-25,34,28,22,28,21,14,89,73,61,30.34,30.19,30.11,10,10,3,18,11,24,0.00,7,Snow,207
2013-11-26,32,24,15,28,19,9,94,77,50,30.25,30.14,30.07,10,10,10,22,8,28,0.00,5,,291
2013-11-27,27,18,9,13,10,6,88,72,48,30.34,30.27,30.20,10,10,10,13,7,16,0.00,0,,298
2013-11-28,36,26,15,21,17,11,98,73,53,30.50,30.28,30.14,10,10,10,13,7,20,0.00,1,,251
2013-11-29,36,23,10,25,18,10,98,77,51,30.59,30.49,30.34,10,10,10,10,3,,0.00,0,,130
2013-11-30,51,39,27,35,30,25,96,79,52,30.33,30.16,30.05,10,10,7,14,7,17,0.00,0,,187